Regional Weather Roundup
Issued by NWS San Angelo, TX

Home | Current Version | Previous Version | Text Only | Print | Product List | Glossary On
Versions: 1 2 3 4 5 6 7 8 9 10 11 12 13 14 15 16 17 18 19 20 21 22 23 24 25 26 27 28 29 30 31 32 33 34 35 36 37 38 39 40 41 42 43 44 45 46 47 48 49 50
000
ASUS44 KSJT 201802
RWRSJT
WEST CENTRAL TEXAS REGIONAL WEATHER ROUNDUP
NATIONAL WEATHER SERVICE SAN ANGELO TX
100 PM CDT FRI OCT 20 2017

NOTE: "FAIR" INDICATES FEW OR NO CLOUDS BELOW 12,000 FEET WITH NO
SIGNIFICANT WEATHER AND/OR OBSTRUCTIONS TO VISIBILITY.

TXZ049-054-064>066-071>073-076>078-098-099-113-114-127-128-139-140-
154-155-168>170-201900
...LOCATIONS ACROSS WEST CENTRAL TEXAS...

CITY           SKY/WX    TMP DP  RH WIND       PRES   REMARKS
SAN ANGELO     MOSUNNY   78  59  51 S15G25    29.99F
ABILENE        LGT RAIN  72  62  71 S20G26    29.97F
DYESS AFB      PTSUNNY   77  63  61 S24       29.95F
JUNCTION       CLOUDY    76  64  66 S7        30.02F
SWEETWATER     SUNNY     76  60  57 S21G30    30.00F
BROWNWOOD      CLOUDY    77  63  61 S10G18    30.01S
COLEMAN        CLOUDY    76  61  60 SE18      29.98F
SONORA         MOSUNNY   73  61  64 S15       30.06F
OZONA          CLOUDY    70  61  73 S16G23    30.05F
BRADY          NOT AVBL
$$

TEXAS PANHANDLE/OKLAHOMA PANHANDLE

CITY           SKY/WX    TMP DP  RH WIND       PRES   REMARKS
AMARILLO       SUNNY     73  53  49 SW24G32   29.90F
BORGER         MOSUNNY   71  54  54 S13G30    29.86F
CANADIAN       MOSUNNY   71  59  66 S22G30    29.86F
DALHART        SUNNY     77  49  37 SW23G31   29.84F
DUMAS          CLEAR     74  51  44 S21G28    29.86F
GUYMON         NOT AVBL
HEREFORD       NOT AVBL
PAMPA          NOT AVBL
PERRYTON       SUNNY     77  54  44 S24G31    29.83F
$$

SOUTHERN PANHANDLE/SOUTH PLAINS/ROLLING PLAINS

CITY           SKY/WX    TMP DP  RH WIND       PRES   REMARKS
LUBBOCK        MOSUNNY   76  53  44 SW18G24   29.96F
SNYDER         SUNNY     76  60  57 S20G29    29.98F
CHILDRESS      LGT RAIN  70  61  73 S15       29.93F
SEMINOLE       NOT AVBL
$$

PERMIAN BASIN

CITY           SKY/WX    TMP DP  RH WIND       PRES   REMARKS
MIDLAND        MOSUNNY   75  59  57 S18       30.00F
ODESSA         NOT AVBL
WINK           SUNNY     75  56  51 S13G20    29.97F
$$

FAR WEST/SOUTHWEST MOUNTAINS/TRANS PECOS

CITY           SKY/WX    TMP DP  RH WIND       PRES   REMARKS
ALPINE         CLEAR     76  47  36 SW12G18   30.12F
DRYDEN           N/A     74  61  63 CALM      29.99F
EL PASO        MOSUNNY   72  52  49 S6        30.00F
FORT STOCKTON  SUNNY     75  58  55 SE9       29.99F
GUADALUPE PASS SUNNY     68  55  63 W22       30.09F
MARFA          SUNNY     69  50  50 S12       30.12F
PECOS          NOT AVBL
$$

DALLAS/FORT WORTH METROPLEX

CITY           SKY/WX    TMP DP  RH WIND       PRES   REMARKS
DFW AIRPORT    PTSUNNY   74  68  81 SE16      30.03F
FTW MEACHAM    CLOUDY    76  65  68 SE14      30.03F
DAL-EXECUTIVE  LGT RAIN  75  67  76 SE10      30.04F
GRAND PRAIRIE  CLOUDY    72  63  73 SE8       30.10S
ADDISON        CLOUDY    72  66  83 SE14G21   30.06F
MESQUITE       NOT AVBL
LANCASTER      CLOUDY    73  65  74 SE8       30.07F
$$

NORTH CENTRAL TEXAS

CITY           SKY/WX    TMP DP  RH WIND       PRES   REMARKS
SHRMAN/DENISON PTCLDY    80  64  59 SE17      30.05F
GAINESVILLE    CLOUDY    76  62  59 SE17G24   30.04F
BRIDGEPORT     PTCLDY    77  62  59 SE14G20   30.04F
DENTON         PTSUNNY   78  65  63 S18       30.03F
WAXAHACHIE     CLOUDY    71  69  91 SE3       30.06F
GRANBURY       NOT AVBL
$$

WESTERN NORTH TEXAS

CITY           SKY/WX    TMP DP  RH WIND       PRES   REMARKS
WICHITA FALLS  CLOUDY    78  61  55 S28       29.93F
VERNON         CLOUDY    75  58  54 S14G22    29.96F
BRECKENRIDGE   CLOUDY    79  60  52 SE20G26   29.95F
COMANCHE       PTSUNNY   77  66  68 SE12G20   30.01F
$$

CENTRAL AND SOUTH CENTRAL TEXAS

CITY           SKY/WX    TMP DP  RH WIND       PRES   REMARKS
AUSTIN/BERGSTM CLOUDY    73  69  87 VRB3      30.02F
WACO           PTSUNNY   78  65  63 SE10G18   30.04F
HILLSBORO      CLOUDY    73  69  86 E7        30.05F
TEMPLE         PTSUNNY   78  67  68 E14       30.03F
KILLEEN-GRAY   CLOUDY    73  66  77 SE7       30.03F
FORT HOOD      CLOUDY    74  66  75 SE10      30.00F
GEORGETOWN     CLOUDY    73  69  87 SE6       30.05F
LAGO VISTA     CLOUDY    72  68  87 SE6       30.05F
SAN MARCOS     CLOUDY    76  69  79 VRB3      30.02F
NEW BRAUNFELS  CLOUDY    77  68  73 E7        30.00F
RANDOLPH AFB   CLOUDY    75  68  78 SE7       30.01F
SAN ANTONIO    CLOUDY    75  67  76 SE6       30.02F
STINSON        CLOUDY    76  70  82 SE5       30.00F
PLEASANTON     NOT AVBL
LA GRANGE      NOT AVBL
GIDDINGS       PTCLDY    82  67  61 S7        30.03F
$$

EAST TEXAS

CITY           SKY/WX    TMP DP  RH WIND       PRES   REMARKS
PARIS          CLOUDY    76  63  64 SE17      30.09F
CLARKSVILLE    NOT AVBL
TYLER          MOSUNNY   82  64  54 SE14      30.07F
LONGVIEW       MOSUNNY   81  66  60 MISG      30.07F
PALESTINE      CLOUDY    78  69  73 SE5       30.07F
NACOGDOCHES    CLOUDY    73  65  75 SE12      30.09F
$$

TEXAS HILL COUNTRY AND EDWARDS PLATEAU

CITY           SKY/WX    TMP DP  RH WIND       PRES   REMARKS
LLANO          NOT AVBL
HORSESHOE BAY  CLOUDY    72  67  83 E5        30.05F
KERRVILLE      CLOUDY    76  69  78 S9        30.03F
FREDERICKSBRG  NOT AVBL
ROCKSPRINGS    NOT AVBL
HONDO          CLOUDY    74  68  81 S5        30.02F
UVALDE         CLOUDY    74  66  75 SE6       30.02F
DEL RIO        CLOUDY    74  67  78 SE13      29.98F
$$

SOUTHEAST TEXAS

CITY           SKY/WX    TMP DP  RH WIND       PRES   REMARKS
COLLEGE STN    PTSUNNY   82  71  69 SE10      30.02F
CALDWELL       MOCLDY    83  71  67 SE9       30.02F
CROCKETT       NOT AVBL
BRENHAM        PTSUNNY   83  72  69 SE7       30.02F
HUNTSVILLE     PTSUNNY   80  64  58 SE7       30.05R
CONROE         CLOUDY    76  72  87 VRB7G16   30.05S
HOUSTON BUSH   PTSUNNY   79  73  82 SE14      30.04F
HOUSTON HOBBY  LGT RAIN  79  71  76 E15       30.03F
PERLAND        CLOUDY    79  72  79 E13       30.05F
WHARTON        PTCLDY    84  67  55 SE3       30.01F
$$

THE UPPER TEXAS COAST

CITY           SKY/WX    TMP DP  RH WIND       PRES   REMARKS
ORANGE         CLOUDY    73  68  84 E8        30.08F
PORT ARTHUR    RAIN      72  68  87 E10       30.04F
GALVESTON      TSTM      77  74  90 E20G26    30.04F FOG
ANGLETON       CLOUDY    82  74  76 E10       30.01F
BAY CITY       CLOUDY    78  72  80 E9        30.01S
$$

TEXAS COASTAL BEND, RIO GRANDE PLAINS DEEP SOUTH TEXAS

CITY           SKY/WX    TMP DP  RH WIND       PRES   REMARKS
VICTORIA       MOSUNNY   86  66  51 SW8       30.00F
BEEVILLE       FAIR      85  56  36 SW3       30.00F
ROCKPORT       PTSUNNY   81  72  74 E7        29.99F
PORT ARANSAS   NOT AVBL
PORT LAVACA    PTCLDY    82  70  66 CALM      30.00F
CORPUS CHRISTI PTSUNNY   84  67  56 CALM      29.98F
KINGSVILLE NAS PTSUNNY   87  71  58 SE7       29.97F
COTULLA        NOT AVBL
LAREDO         PTSUNNY   83  69  62 SE12      29.98F
BROWNSVILLE    MOSUNNY   88  71  57 SE5       29.97F
PORT ISABEL    SUNNY     86  72  62 E12       29.96F
HEBBRONVILLE   NOT AVBL
MCALLEN        MOSUNNY   87  70  56 SE10      29.97F
WESLACO        SUNNY     87  68  53 S9        29.96F
FALFURRIAS     PTCLDY    84  68  57 S5        29.97F
EDINBURG       PTCLDY    88  67  48 SE8       29.97F
$$




USA.gov is the U.S. government's official web portal to all federal, state and local government web resources and services.